User: anonymous
Location: Hickory_Viewmont
(35.7830°N, 81.3170°W)
Time: 23:19:07
(UTC-04:00)
Language:

Okean-O - Orbit

View from above orbital plane
View from above orbital plane
View from above satellite
View from above satellite

Ground track
Ground track

The orbit data is extracted from the following two-line orbital elements,

1 25860U 99039A   14211.45457100  .00000323  00000-0  55256-4 0  3164
2 25860 098.0464 175.0728 0000913 108.2335 002.6801 14.75324180808535
Epoch (UTC): 30 July 2014 10:54:34
Eccentricity: 0.0000913
inclination: 98.0464°
perigee height: 643 km
apogee height: 645 km
right ascension of ascending node: 175.0728°
argument of perigee: 108.2335°
revolutions per day: 14.75324180
mean anomaly at epoch: 2.6801°
orbit number at epoch: 80853

The dashed part of the orbit path shows where the satellite is in the earth's shadow,  

DLR